map of CHC home
CHC - Airport
Location
City:  Christchurch, Canterbury (Waitaha), New Zealand
Name:Christchurch International Airport
ICAO:NZCH
IATA:CHC

Details
Type:Airport (Aerodrome, Airfield)
Use:Public/Civil, International (customs port of entry)
Latitude:4329'22"S (-43.489443)
Longitude:17232'04"E (172.534444)
Elevation:123 ft (37 m)
Variation:23.93E (WMM2015v2 magnetic declination)
0.07 annual change
Runways:3
Longest:10785 × 148 ft (3287 × 45 m), paved

Time
Time Zone:UTC+12 (DST+13)
Local Time:

Weather
METAR:NZCH 041400Z AUTO 22012KT 9999 NCD 16/08 Q1010 NOSIG
TAF:NZCH 041308Z 0412/0512 24012KT CAVOK
BECMG 0416/0418 VRB02KT
FM050200 30015G25KT 9999 BKN050
FM051000 19015G25KT 9999 -RA BKN030

Related Locations
Nearby:
Farthest:LEVF: 12422 mi / 19991 km
Ribadeo [Villaframil], GA, ES

Find:

   beyond  
but within

Other Information
Maps:
NOTAMs:
Links:
Sources:

  
  • flag of New Zealand
  

Airport Diagram

Airport diagram for CHC

Larger airport diagram (OBSOLETE) from NGA

Sectional Chart

Flight Planning
at skyvector.com

Satellite Image

Google Maps Satellite view

 

Copyright © 2004-2019 Karl L. Swartz. All rights reserved.
The Great Circle Mapper name and logo are trademarks of the Great Circle Mapper.
All other trademarks mentioned herein belong to their respective owners.
Please see credits for attibutions and further copyright information.

  Follow gcmap on Facebook Follow gcmap on Twitter GCmap on LinkedIn

hCard Microformat

Geo Microformat